RH
27 32 28 26 28 29 34 45 46 32 27 43 46 58 57 52 79 94 100 85 69 78 70 72 70 87 90 74 87 97 97 100 99 93 83 63 53 56 45 38 25 14 10 8
24 37 25 28 34 47 55 58 65 72 86 100 100 64 63 96 94 78 67 71 56 43 50 54 63 66 76 77 80 91 92 88 96 87 67 39 43 40 37 28 15 9 8 8
30 37 42 53 69 96 100 99 92 76 62 56 64 60 71 67 61 63 45 42 39 43 56 72 78 88 83 79 78 80 75 88 75 51 33 31 33 34 30 17 9 8 8 9
48 51 44 45 63 60 41 53 54 53 70 70 56 50 50 52 54 52 45 44 49 56 69 91 96 98 94 93 83 94 98 84 69 30 27 28 29 26 19 9 8 8 8 7
48 43 41 53 96 63 53 51 55 63 56 47 49 39 43 48 42 42 52 64 68 78 86 94 94 90 97 89 89 99 91 85 45 24 23 24 21 17 9 8 8 8 7 5
91 68 58 82 66 61 55 51 55 54 57 64 64 71 68 66 76 78 94 100 100 100 98 99 92 86 83 75 64 69 68 43 24 19 22 18 14 10 8 8 8 7 6 5
64 71 70 73 68 57 58 56 58 61 68 71 80 92 100 100 100 100 100 100 98 94 90 90 79 79 67 61 56 46 32 19 18 19 18 14 10 8 8 9 8 6 6 5
65 66 63 55 48 65 87 90 84 92 100 100 100 100 100 100 99 93 94 82 75 70 71 66 66 63 53 45 31 22 16 14 16 17 14 10 7 7 8 8 6 6 6 5
86 65 70 80 97 100 100 86 96 100 97 73 69 72 74 72 60 59 59 60 63 67 61 57 51 45 31 21 16 13 12 14 14 13 11 7 7 8 9 7 6 6 5 4
75 93 86 98 98 95 97 93 80 77 71 72 69 69 69 57 56 59 70 67 57 48 39 32 24 17 15 13 11 11 13 12 12 11 8 6 8 8 7 7 6 6 4 4
53 62 57 63 67 70 67 63 61 60 68 66 62 61 53 56 57 57 44 39 26 17 13 14 14 13 11 10 12 12 11 11 10 7 6 7 8 8 7 6 6 5 4 4
53 60 70 71 68 63 70 68 64 64 65 71 67 64 67 52 45 35 21 12 11 12 13 13 10 9 10 12 11 10 11 9 7 6 7 8 8 6 6 6 5 4 4 5
68 65 60 69 71 84 89 83 77 78 64 58 57 56 43 20 15 13 12 12 12 12 11 9 9 10 12 11 11 11 8 6 6 7 8 8 7 7 6 5 4 4 5 6
78 87 99 100 100 96 92 90 67 56 61 42 31 19 15 16 14 13 13 12 12 11 9 11 13 12 11 11 11 8 6 6 7 7 7 6 6 6 5 4 4 5 5 6
100 100 100 94 99 97 89 61 57 53 34 22 18 18 17 16 15 15 14 13 12 13 14 14 12 11 11 10 7 6 6 6 7 7 6 6 6 5 4 4 4 6 6 6
100 100 98 81 82 68 48 45 41 27 18 17 16 17 18 17 17 17 16 15 15 14 13 12 12 11 8 6 6 5 6 7 6 6 6 5 5 4 3 4 6 7 6 6
93 84 93 75 50 40 32 24 18 17 18 20 20 19 19 19 18 17 16 15 14 12 11 11 10 6 6 5 5 6 6 6 5 5 5 4 4 3 3 5 6 7 6 6
89 85 69 40 24 25 19 18 18 18 18 19 17 18 17 16 15 14 14 12 12 11 10 9 6 6 5 5 6 6 5 5 5 5 4 4 3 3 4 6 6 6 6 6
81 47 26 26 22 14 15 16 16 17 17 17 16 16 14 13 13 12 12 11 11 9 6 6 6 5 6 6 6 5 5 5 4 4 4 3 3 3 4 5 5 6 5 5
27 19 18 16 15 15 16 16 17 18 17 16 14 13 13 12 12 11 11 10 7 6 5 6 6 6 6 5 5 5 5 4 4 4 3 3 3 3 4 5 5 5 5 5
17 15 15 14 14 15 15 15 16 16 14 12 12 12 12 11 11 10 7 6 6 6 6 5 6 6 5 5 5 5 4 4 4 3 2 3 3 4 4 4 5 5 5 4
13 12 12 12 13 14 14 14 13 12 11 11 11 11 11 10 7 6 6 6 6 6 6 6 6 5 5 5 5 4 4 4 3 2 3 3 4 4 4 4 5 5 4 4
11 11 11 11 11 11 12 11 10 10 11 11 10 8 6 6 6 5 6 6 6 6 6 6 5 5 5 5 4 4 4 3 2 3 3 3 4 4 4 4 5 4 4 4
9 10 10 11 11 10 10 10 10 10 9 7 6 6 5 5 5 6 7 6 7 6 6 5 5 5 5 4 5 4 3 3 3 3 3 4 4 4 4 4 4 4 4 4
10 10 10 10 10 10 10 9 7 5 5 5 5 5 5 6 7 7 7 7 6 6 6 5 6 5 5 5 4 3 3 3 3 3 3 4 4 4 4 4 4 4 4 4
10 10 10 9 8 7 5 5 5 5 5 5 5 5 6 7 7 7 6 6 6 6 6 6 5 5 5 4 3 3 3 3 3 3 4 4 3 4 4 4 4 4 4 4
8 7 5 4 4 4 4 5 4 4 4 5 6 7 7 7 7 6 6 6 6 6 6 5 5 5 4 3 3 3 3 3 3 3 4 4 3 3 4 4 4 4 4 4
Wind_Speed
48 45 41 42 47 54 58 61 60 56 63 65 69 73 75 80 82 84 85 90 94 97 100 103 103 104 106 105 113 117 123 124 129 133 139 125 115 109 103 97 89 86 80 74
38 45 43 44 52 56 60 62 65 66 68 76 76 80 83 83 85 85 90 95 97 99 103 106 107 106 107 112 118 122 126 130 135 135 135 114 109 105 99 92 87 80 75 69
39 47 50 54 60 64 64 67 70 71 73 75 78 80 82 85 88 90 97 99 99 103 105 107 110 113 118 122 126 131 134 136 136 136 117 109 106 101 94 88 82 75 71 66
49 52 51 58 70 73 69 72 74 74 77 81 82 86 90 93 94 97 103 104 105 108 110 114 119 121 125 130 135 136 139 140 139 121 113 108 102 94 89 83 76 72 68 65
57 59 61 66 76 76 75 74 80 81 85 87 89 88 92 99 101 106 111 112 113 115 117 119 125 128 134 137 139 139 139 137 129 117 109 102 94 89 84 77 73 70 67 64
65 63 63 72 76 80 83 82 86 90 94 96 97 99 99 105 109 112 115 117 120 122 129 130 132 136 139 139 139 137 135 130 116 111 101 92 88 84 77 73 70 67 66 60
70 75 72 81 82 83 86 84 89 94 98 99 101 107 111 111 113 117 120 124 129 132 135 137 139 141 141 137 132 126 122 111 110 100 92 88 83 77 73 71 69 66 63 58
78 81 78 84 87 90 93 92 98 97 101 105 108 111 116 120 124 126 127 132 135 138 140 140 136 131 127 126 119 113 105 104 98 91 86 82 77 73 71 69 67 63 59 54
86 89 89 89 93 94 100 103 103 107 110 114 121 123 126 129 131 133 135 136 132 131 128 124 122 121 119 112 106 103 101 94 88 84 83 78 72 69 68 67 64 59 55 49
87 90 95 94 98 105 107 109 112 116 117 119 124 125 129 129 130 132 130 125 124 120 120 119 114 108 102 101 101 94 89 85 83 81 78 72 69 66 64 63 60 56 51 47
95 97 100 101 110 113 116 116 116 117 121 123 125 126 128 127 125 122 119 118 116 112 109 104 98 98 98 96 90 87 84 83 80 76 71 69 67 64 63 59 56 51 48 44
103 104 110 108 109 110 114 116 118 122 125 125 127 122 120 119 115 113 110 105 101 100 99 99 97 94 92 90 87 85 83 79 74 70 68 66 64 64 58 57 51 49 45 41
112 107 106 112 116 119 127 132 130 129 124 124 122 120 112 107 104 101 100 100 99 98 93 92 90 89 89 87 85 82 78 74 68 67 65 63 61 59 59 51 48 45 41 37
111 113 117 122 127 130 130 131 127 124 124 119 109 102 99 99 98 95 94 94 93 92 90 90 89 87 86 85 81 77 73 68 65 65 62 60 58 56 52 48 44 41 37 34
120 121 128 133 136 130 128 122 120 121 110 102 98 96 94 95 95 95 94 93 91 90 91 88 87 85 82 79 75 70 67 65 63 60 59 57 55 50 48 43 40 37 34 30
124 127 137 131 133 127 123 120 114 106 98 96 95 93 94 94 93 93 94 94 92 90 88 85 83 81 77 73 69 66 62 61 60 59 56 54 49 46 43 39 37 34 30 28
132 136 131 129 121 119 113 106 98 94 94 93 94 92 93 93 93 93 92 91 88 84 83 81 79 75 70 67 64 61 60 58 57 55 53 49 45 42 40 37 34 31 28 26
130 129 127 124 118 110 102 97 94 94 90 91 92 90 92 91 90 89 86 83 81 80 78 77 72 68 65 62 60 59 58 57 55 52 48 45 42 40 37 35 32 29 26 25
129 123 116 112 109 100 95 94 93 94 92 92 92 92 89 86 83 82 80 79 77 75 74 70 66 63 60 59 58 57 56 53 51 47 44 41 39 37 35 32 30 27 24 23
117 109 107 104 102 99 96 96 97 97 95 93 91 86 82 79 78 77 76 74 73 69 65 64 61 59 58 57 56 55 53 50 46 43 41 39 38 36 32 29 27 25 22 22
106 103 102 99 96 95 96 94 93 93 92 87 82 78 76 75 74 73 71 68 66 65 61 59 57 56 55 55 54 51 49 46 43 40 39 38 35 32 29 27 24 23 22 21
105 101 99 96 94 92 92 92 91 87 81 77 75 73 72 72 70 66 64 63 62 59 57 56 55 54 53 52 50 48 45 42 40 40 37 34 31 28 26 24 22 21 22 20
102 96 95 93 91 90 88 86 81 77 74 72 71 71 69 66 64 63 61 59 58 56 55 54 53 52 51 49 47 44 42 41 41 37 34 32 29 27 25 23 22 21 21 20
92 90 89 88 87 84 80 76 73 71 70 69 68 65 63 62 60 59 57 56 55 54 54 53 52 50 47 45 44 43 41 41 38 34 32 31 28 26 24 22 22 21 20 20
86 85 83 81 79 76 72 70 68 67 66 64 62 61 59 58 56 55 54 53 53 53 52 52 49 47 45 43 42 41 40 38 33 32 31 30 27 25 23 22 21 20 20 19
77 76 73 73 69 67 66 65 63 62 60 59 57 57 55 54 52 52 52 52 51 51 51 48 46 44 43 41 39 39 38 33 31 30 30 29 27 24 23 21 20 19 19 19
68 67 66 65 63 62 60 59 59 57 56 54 54 53 51 50 50 50 50 50 50 50 48 46 43 43 41 39 38 37 34 31 30 29 29 27 26 25 22 20 19 19 19 19
Wind_Direction
293 297 300 298 293 294 297 299 300 299 302 302 303 305 305 307 309 310 310 309 312 315 312 311 312 312 313 312 314 317 318 319 320 322 321 320 320 319 316 316 313 310 309 306
295 301 299 298 296 296 297 301 303 305 308 306 306 304 304 305 305 305 306 310 312 310 311 310 312 311 312 313 314 316 318 319 320 320 321 319 320 318 317 315 311 310 309 307
291 296 299 299 299 297 299 298 298 298 298 300 304 305 303 303 304 308 310 310 309 308 309 311 312 312 312 313 315 315 317 319 321 321 320 319 320 318 315 313 311 311 310 308
293 294 299 298 294 294 295 296 297 301 301 303 306 308 307 305 304 305 307 307 307 307 309 310 311 312 312 313 315 315 316 319 320 320 320 320 318 316 315 313 312 312 311 308
296 297 302 303 299 302 302 301 298 301 303 303 303 305 304 303 303 305 307 308 307 307 308 309 310 311 312 313 314 315 317 317 320 320 319 318 316 316 315 314 313 313 311 310
300 302 304 300 302 302 303 303 301 301 302 302 301 301 302 302 304 305 306 306 306 307 309 309 310 310 311 313 314 315 315 318 318 319 317 316 316 316 315 314 313 313 311 311
297 300 300 295 299 300 300 299 299 302 304 305 304 304 304 304 304 304 305 305 305 306 307 308 308 308 309 311 312 313 316 316 318 317 315 316 316 316 315 315 313 314 312 311
296 299 301 301 302 304 304 304 304 303 302 302 302 302 302 303 303 303 303 303 304 304 305 306 307 308 310 311 312 314 316 317 316 314 314 315 315 316 315 314 313 314 312 310
299 303 304 305 303 302 302 303 302 301 301 302 302 302 302 302 303 303 304 305 306 306 307 308 309 309 310 312 314 316 317 316 315 314 314 314 315 315 315 313 314 313 312 311
299 300 302 302 301 302 301 301 302 301 302 303 302 302 301 302 303 305 306 306 306 306 307 307 308 310 313 316 317 316 316 315 313 314 314 315 315 315 314 313 313 314 312 312
299 299 299 301 300 300 299 299 300 302 304 305 304 304 304 305 305 307 307 306 306 306 308 311 313 315 316 316 316 316 315 313 314 314 315 315 315 315 315 314 314 313 312 312
298 297 296 297 298 299 302 302 302 305 305 306 307 308 308 307 307 307 306 307 309 310 312 313 315 315 316 315 314 314 313 313 314 314 314 315 315 314 314 314 315 312 312 310
299 298 303 307 307 306 305 306 306 307 307 308 308 307 307 307 306 307 309 310 311 313 313 313 314 314 314 314 313 313 313 313 314 313 314 314 314 314 314 314 314 311 310 308
305 306 305 305 305 304 304 305 305 307 308 310 307 307 307 309 309 310 312 312 312 312 311 312 312 313 313 313 313 313 312 313 313 313 313 314 314 314 312 313 313 310 309 306
301 301 301 303 304 304 304 305 306 306 308 308 307 308 307 308 309 309 309 309 310 310 310 311 312 313 312 312 312 312 312 312 313 312 312 313 313 312 311 312 311 309 307 304
298 298 299 302 303 305 305 305 306 307 308 308 307 309 310 309 308 307 307 307 308 309 310 311 312 311 312 312 311 312 312 313 313 313 313 314 312 311 311 311 309 307 306 302
298 300 300 301 302 304 306 306 307 307 308 308 308 308 307 306 305 305 306 307 308 309 310 310 310 312 312 312 312 313 313 313 312 312 313 312 312 311 311 310 308 306 304 299
299 299 300 302 302 303 304 304 305 305 306 306 305 306 306 306 305 305 306 307 308 309 310 310 312 312 312 312 312 313 313 313 313 313 313 312 312 311 310 309 306 303 301 297
297 297 299 300 300 303 304 304 305 305 306 306 306 306 306 306 306 307 307 307 309 310 310 312 312 312 313 313 313 313 313 314 314 313 312 312 311 310 310 308 305 301 297 293
297 299 301 302 303 303 303 304 305 304 303 304 306 307 307 306 307 306 307 308 309 310 312 311 312 313 313 314 314 314 314 314 314 314 312 311 310 309 308 307 303 298 294 290
297 299 299 298 299 300 299 300 300 301 303 305 306 306 306 306 306 308 309 310 310 312 312 312 314 315 314 314 314 315 315 315 315 314 313 312 311 309 307 306 301 295 293 287
297 297 298 298 299 299 299 299 300 302 303 305 305 305 306 307 308 309 309 310 311 312 312 314 315 314 315 315 316 315 316 316 317 317 315 315 313 310 308 304 300 295 292 285
296 298 298 298 298 298 299 301 301 302 304 305 305 306 308 309 309 308 310 311 311 312 314 315 315 315 315 316 316 317 318 319 319 318 316 316 314 311 307 303 299 295 289 283
297 298 298 298 298 298 299 300 301 303 304 305 307 308 308 308 308 310 310 310 312 313 314 315 316 316 317 317 317 319 319 319 319 318 317 316 314 311 307 302 298 293 287 281
297 296 296 296 297 298 299 300 302 303 305 305 307 307 307 308 309 309 309 311 313 314 315 317 318 318 318 319 319 319 319 318 319 318 316 314 313 311 307 301 296 290 285 280
293 293 294 294 296 298 300 302 303 304 304 306 306 306 307 307 307 308 310 312 312 314 316 318 318 317 319 320 319 317 318 316 317 317 315 313 312 311 307 301 294 289 284 279
292 293 294 296 298 300 302 302 303 304 304 304 304 304 304 306 307 309 311 312 314 316 317 318 318 318 319 319 317 316 316 315 316 316 314 312 310 308 305 300 295 290 286 282